This is the latest recevied weather packets stored in our database for station/object WW4HG. If no packets are shown the sender has not sent any weather packets the latest 10 day(s).
| Time | Temp. | Humidity | Pressure | Rain* | Wind** | Luminosity | Snow |
|---|---|---|---|---|---|---|---|
| 1777900285 | 18.89° C | 52% | 1020.1 hPa | 0 mm | - | 292 W/m² | - |
| 1777899981 | 18.89° C | 53% | 1020.4 hPa | 0 mm | - | 286 W/m² | - |
| 1777899678 | 18.33° C | 54% | 1020.1 hPa | 0 mm | - | 279 W/m² | - |
| 1777899375 | 18.33° C | 53% | 1020.4 hPa | 0 mm | - | 275 W/m² | - |
| 1777899073 | 18.33° C | 53% | 1020.1 hPa | 0 mm | - | 268 W/m² | - |
| 1777898770 | 17.78° C | 54% | 1020.4 hPa | 0 mm | - | 262 W/m² | - |
| 1777898467 | 17.78° C | 54% | 1020.1 hPa | 0 mm | - | 256 W/m² | - |
| 1777898165 | 17.78° C | 55% | 1020.1 hPa | 0 mm | - | 250 W/m² | - |
| 1777897862 | 17.22° C | 56% | 1020.4 hPa | 0 mm | - | 241 W/m² | - |
| 1777897558 | 16.67° C | 57% | 1020.1 hPa | 0 mm | - | 232 W/m² | - |
| 1777897253 | 16.11° C | 57% | 1020.1 hPa | 0 mm | - | 225 W/m² | - |
| 1777896950 | 15.56° C | 60% | 1020.1 hPa | 0 mm | - | 217 W/m² | - |
| 1777896647 | 15° C | 64% | 1020.1 hPa | 0 mm | - | 208 W/m² | - |
| 1777896344 | 13.89° C | 71% | 1020.1 hPa | 0 mm | - | 200 W/m² | - |
| 1777896042 | 13.33° C | 77% | 1020.1 hPa | 0 mm | - | 189 W/m² | - |
| 1777895739 | 12.78° C | 81% | 1019.7 hPa | 0 mm | - | 182 W/m² | - |
| 1777895436 | 12.78° C | 83% | 1019.7 hPa | 0 mm | - | 174 W/m² | - |
| 1777895134 | 11.67° C | 85% | 1019.7 hPa | 0 mm | - | 166 W/m² | - |
| 1777894832 | 11.11° C | 85% | 1019.7 hPa | 0 mm | - | 157 W/m² | - |
| 1777894528 | 10.56° C | 85% | 1019.7 hPa | 0 mm | - | 147 W/m² | - |
| 1777894226 | 10° C | 85% | 1019.7 hPa | 0 mm | - | 138 W/m² | - |
| 1777893922 | 8.89° C | 85% | 1019.7 hPa | 0 mm | - | 127 W/m² | - |
| 1777893618 | 8.89° C | 85% | 1019.4 hPa | 0 mm | - | 113 W/m² | - |
| 1777893314 | 8.33° C | 86% | 1019.7 hPa | 0 mm | - | 101 W/m² | - |
| 1777893005 | 8.33° C | 86% | 1019.7 hPa | 0 mm | - | 57 W/m² | - |
* Rain latest hour (hover to see other rain measurements)
** Current wind speed in m/s (hover to see current wind gust speed)